Regional Weather Roundup
Issued by NWS Little Rock, AR

Home | Current Version | Previous Version | Graphics & Text | Print | Product List | Glossary On
Versions: 1 2 3 4 5 6 7 8 9 10 11 12 13 14 15 16 17 18 19 20 21 22 23 24 25 26 27 28 29 30 31 32 33 34 35 36 37 38 39 40 41 42 43 44 45 46 47 48 49 50
000
ASUS44 KLZK 021305
RWRLZK

WEATHER ROUNDUP FOR ARKANSAS
NATIONAL WEATHER SERVICE LITTLE ROCK AR
800 AM CDT MON MAY 02 2016

NOTE: "FAIR" INDICATES FEW OR NO CLOUDS BELOW 12,000 FEET WITH NO
SIGNIFICANT WEATHER AND/OR OBSTRUCTIONS TO VISIBILITY.

ARZ001-003-010-029-021400-
NORTHWEST ARKANSAS

CITY           SKY/WX    TMP DP  RH WIND       PRES   REMARKS
FAYETTEVILLE   CLOUDY    52  51  97 CALM      30.08R
FORT SMITH     CLOUDY    56  50  80 NW6       30.07R
HARRISON       CLOUDY    52  48  86 N3        30.08R
BENTONVILLE    CLOUDY    52  45  76 NE8       30.09R
ROGERS         CLOUDY    51  48  89 N6        30.09R
SILOAM SPGS    CLOUDY    52  41  66 N8        30.10R
HIGHFILL       CLOUDY    52  50  93 N9        30.08R
SPRINGDALE     CLOUDY    52  50  93 N6        30.10R
$$

ARZ004-005-016-021400-
NORTH CENTRAL ARKANSAS

CITY           SKY/WX    TMP DP  RH WIND       PRES   REMARKS
BATESVILLE     CLOUDY    55  48  76 CALM      30.07R
FLIPPIN        MOSUNNY  N/A N/A N/A NE5       30.05S
MTN HOME       SUNNY     53  46  77 NE7       30.07R
$$

ARZ040-041-021400-
WEST CENTRAL ARKANSAS

CITY           SKY/WX    TMP DP  RH WIND       PRES   REMARKS
MENA           CLOUDY    59  54  82 NE6       30.05F
MOUNT IDA      CLOUDY    56  52  86 CALM      30.03R
$$

ARZ009-017-025-026-028-021400-
NORTHEAST ARKANSAS

CITY           SKY/WX    TMP DP  RH WIND       PRES   REMARKS
CORNING          N/A     57  48  72 NE10      30.05R
JONESBORO      CLOUDY    58  52  80 NE7       30.03S
NEWPORT        CLOUDY    57  54  90 N14       30.07R
WALNUT RIDGE   CLOUDY    57  48  72 N6        30.06R
BLYTHEVILLE    LGT RAIN  57  53  86 E5        30.02F
$$

ARZ022-023-033-042-044-021400-
CENTRAL ARKANSAS

CITY           SKY/WX    TMP DP  RH WIND       PRES   REMARKS
LITTLE ROCK    LGT RAIN  57  53  86 N6        30.06R
N LITTLE ROCK    N/A     54  52  93 N3        30.02F
SEARCY         CLOUDY    55  54  94 N5        30.07S
HOT SPRINGS    LGT RAIN  56  53  90 VRB5      30.04R
RUSSELLVILLE   PTSUNNY   59  50  72 N6        30.05S
$$

ARZ036-021400-
EAST ARKANSAS

CITY           SKY/WX    TMP DP  RH WIND       PRES   REMARKS
WEST MEMPHIS   HVY RAIN  56  55  97 N10G20    30.05R FOG
$$

ARZ050-053-066-070-073-021400-
SOUTHWEST ARKANSAS

CITY           SKY/WX    TMP DP  RH WIND       PRES   REMARKS
ARKADELPHIA    PTSUNNY   57  57 100 NE7       30.05R
CAMDEN         CLOUDY    57  52  82 NE5       30.04R
TEXARKANA      CLOUDY    59  55  87 NE6       30.03R
EL DORADO      CLOUDY    58  55  90 N5        30.03R
DE QUEEN       CLOUDY    58  55  90 W3        30.04R
$$

ARZ056-057-069-021400-
SOUTHEAST ARKANSAS

CITY           SKY/WX    TMP DP  RH WIND       PRES   REMARKS
PINE BLUFF     LGT RAIN  55  52  89 NE12      30.02R
STUTTGART      CLOUDY    55  48  76 NE10      30.01F
MONTICELLO     CLOUDY    58  54  86 NE7       29.99F

$$





USA.gov is the U.S. government's official web portal to all federal, state and local government web resources and services.